Location: Newark
(44.6028°N, 124.0883°W)
Time: 06:42:24
(UTC+00:00)

Transit 4A - All Passes

Search period start: 16 October 2019 00:00
Search period end: 26 October 2019 00:00
Orbit: 866 x 978 km, 66.8° (Epoch: 15 October)

Date Brightness Start Highest point End Pass type
(mag) Time Alt. Az. Time Alt. Az. Time Alt. Az.
16 Oct - 00:28:43 10° WNW 00:32:20 17° WSW 00:35:55 10° SW daylight
16 Oct - 12:06:25 10° SE 12:09:27 14° ESE 12:12:27 10° ENE visible
16 Oct - 13:48:30 10° SSW 13:54:52 80° ESE 14:01:08 10° NE visible
16 Oct - 15:36:47 10° W 15:41:56 25° NW 15:46:59 10° NNE daylight
16 Oct - 21:04:10 10° NNW 21:09:11 26° NE 21:14:03 10° E daylight
16 Oct - 22:50:08 10° NW 22:56:07 71° WSW 23:01:55 10° SSE daylight
17 Oct - 00:40:27 10° W 00:41:18 10° W 00:42:08 10° WSW daylight
17 Oct - 12:13:54 10° SSE 12:18:28 21° ESE 12:22:59 10° ENE visible
17 Oct - 13:57:52 10° SW 14:04:14 75° NW 14:10:29 10° NNE visible
17 Oct - 15:47:11 10° W 15:51:39 20° NW 15:56:05 10° N daylight
17 Oct - 19:28:33 10° N 19:30:26 11° NNE 19:32:17 10° NE daylight
17 Oct - 21:13:20 10° NNW 21:18:49 34° NE 21:24:08 10° ESE daylight
17 Oct - 22:59:38 10° NW 23:05:21 48° WSW 23:10:55 10° S daylight
18 Oct - 12:22:07 10° SSE 12:27:33 31° ESE 12:32:55 10° NE visible
18 Oct - 14:07:27 10° SW 14:13:40 54° NW 14:19:46 10° NNE visible
18 Oct - 15:57:49 10° WNW 16:01:29 16° NNW 16:05:06 10° N daylight
18 Oct - 19:37:20 10° N 19:40:22 14° NNE 19:43:20 10° ENE daylight
18 Oct - 21:22:33 10° NNW 21:28:22 47° NE 21:33:59 10° SE daylight
18 Oct - 23:09:16 10° NW 23:14:30 32° WSW 23:19:37 10° S daylight
19 Oct - 12:30:45 10° S 12:36:43 44° ESE 12:42:37 10° NE visible
19 Oct - 14:17:16 10° WSW 14:23:10 39° NW 14:28:59 10° NNE daylight
19 Oct - 16:08:44 10° NW 16:11:22 13° NNW 16:14:00 10° N daylight
19 Oct - 19:46:19 10° N 19:50:13 17° NNE 19:54:03 10° ENE daylight
19 Oct - 21:31:49 10° NNW 21:37:49 66° NE 21:43:37 10° SE daylight
19 Oct - 23:19:11 10° WNW 23:23:35 22° WSW 23:27:55 10° SSW daylight
20 Oct - 12:39:41 10° SSW 12:45:57 64° ESE 12:52:08 10° NE visible
20 Oct - 14:27:18 10° WSW 14:32:46 30° NW 14:38:09 10° NNE daylight
20 Oct - 16:20:09 10° NNW 16:21:20 10° NNW 16:22:31 10° N daylight
20 Oct - 19:55:23 10° NNW 20:00:00 22° NE 20:04:30 10° E daylight
20 Oct - 21:41:08 10° NNW 21:47:11 88° WSW 21:53:01 10° SSE daylight
20 Oct - 23:29:37 10° WNW 23:32:35 14° WSW 23:35:32 10° SW daylight
21 Oct - 11:06:01 10° SE 11:09:43 16° ESE 11:13:23 10° ENE visible
21 Oct - 12:48:53 10° SSW 12:55:15 89° SE 13:01:32 10° NNE visible
21 Oct - 14:37:33 10° W 14:42:27 23° NW 14:47:17 10° NNE daylight
21 Oct - 18:20:35 10° NNE 18:21:03 10° NNE 18:21:33 10° NNE daylight
21 Oct - 20:04:30 10° NNW 20:09:41 29° NE 20:14:43 10° ESE daylight
21 Oct - 21:50:34 10° NW 21:56:27 61° WSW 22:02:11 10° SSE daylight
22 Oct - 11:13:50 10° SSE 11:18:45 24° ESE 11:23:38 10° NE visible
22 Oct - 12:58:20 10° SW 13:04:38 66° NW 13:10:51 10° NNE visible
22 Oct - 14:48:02 10° WNW 14:52:13 18° NNW 14:56:20 10° N daylight
22 Oct - 18:28:44 10° N 18:31:02 12° NNE 18:33:19 10° NE daylight
22 Oct - 20:13:41 10° NNW 20:19:17 38° NE 20:24:43 10° ESE daylight
22 Oct - 22:00:07 10° NW 22:05:40 42° WSW 22:11:05 10° S daylight
23 Oct - 11:22:13 10° S 11:27:52 35° ESE 11:33:27 10° NE visible
23 Oct - 13:08:00 10° SW 13:14:06 48° NW 13:20:06 10° NNE visible
23 Oct - 14:58:46 10° WNW 15:02:04 14° NNW 15:05:20 10° N daylight
23 Oct - 18:37:35 10° N 18:40:56 15° NNE 18:44:13 10° ENE daylight
23 Oct - 20:22:55 10° NNW 20:28:47 53° NE 20:34:29 10° SE daylight
23 Oct - 22:09:50 10° NW 22:14:47 28° WSW 22:19:39 10° SSW daylight
24 Oct - 11:30:58 10° S 11:37:04 51° ESE 11:43:05 10° NE visible
24 Oct - 13:17:54 10° WSW 13:23:39 35° NW 13:29:18 10° NNE visible
24 Oct - 15:09:49 10° NW 15:11:59 12° NNW 15:14:08 10° N daylight
24 Oct - 18:46:36 10° N 18:50:46 19° NE 18:54:50 10° ENE daylight
24 Oct - 20:32:12 10° NNW 20:38:13 75° ENE 20:44:02 10° SE daylight
24 Oct - 22:19:52 10° WNW 22:23:50 19° WSW 22:27:45 10° SSW daylight
25 Oct - 09:58:43 10° ESE 10:01:00 12° E 10:03:15 10° E visible
25 Oct - 11:40:01 10° SSW 11:46:19 73° ESE 11:52:32 10° NE visible
25 Oct - 13:28:00 10° W 13:33:17 27° NW 13:38:28 10° NNE visible
25 Oct - 18:55:42 10° NNW 19:00:30 24° NE 19:05:13 10° E daylight
25 Oct - 20:41:33 10° NW 20:47:32 78° WSW 20:53:21 10° SSE daylight
25 Oct - 22:30:47 10° W 22:32:49 12° W 22:34:51 10° WSW daylight
